Retour au catalogue

COSMOS 1799

ActifMilitaireLEO
NORAD 17143·PAYLOAD·🇷🇺 Russia

Lancé Nov 21, 1986 depuis Plesetsk Cosmodrome

Loading…

Prochains Passages (prochaines 24 heures)

TLE

FraisSource: Space-Track

Époque: Sep 14, 2026, 18:00 UTC

1 17143U 86092F   26257.75060674 -.00000004  00000-0  75730-4 0  9999
2 17143  74.0180   6.4949 0037347  23.5987 143.2431 12.55280127824496

Suivez COSMOS 1799 en temps réel avec AllMySat

Download on the App Store